CDT,Max TemperatureF,Mean TemperatureF,Min TemperatureF,Max Dew PointF,MeanDew PointF,Min DewpointF,Max Humidity, Mean Humidity, Min Humidity, Max Sea Level PressureIn, Mean Sea Level PressureIn, Min Sea Level PressureIn, Max VisibilityMiles, Mean VisibilityMiles, Min VisibilityMiles, Max Wind SpeedMPH, Mean Wind SpeedMPH, Max Gust SpeedMPH,PrecipitationIn, CloudCover, Events, WindDirDegrees
2014-3-1,68,57,46,47,40,34,76,61,45,30.24,30.18,30.13,10,10,10,13,4,16,T,7,,133
2014-3-2,76,65,53,53,50,46,86,64,41,30.20,30.09,29.91,10,10,10,21,10,28,0.00,3,,191
2014-3-3,65,46,27,57,36,21,100,86,72,30.26,30.04,29.83,10,6,2,39,13,48,0.28,8,Rain,323
2014-3-4,43,35,27,35,29,22,92,77,62,30.24,30.19,30.14,10,8,2,12,4,15,0.00,7,,11
2014-3-5,63,49,34,39,35,32,92,64,36,30.17,30.12,30.06,10,10,7,10,3,14,0.00,4,,67
2014-3-6,49,44,38,39,35,28,92,71,50,30.09,30.05,30.03,10,8,3,16,6,22,0.45,7,Rain,53
2014-3-7,63,51,39,41,39,37,92,66,39,30.09,30.04,29.99,10,8,3,12,3,15,0.00,4,,313
2014-3-8,69,53,37,44,41,35,92,64,35,30.20,30.14,30.07,10,10,9,14,3,20,0.00,3,,246
2014-3-9,70,57,44,45,43,40,86,61,36,30.25,30.19,30.14,10,10,9,13,3,21,0.00,4,,351
2014-3-10,71,57,42,48,45,40,92,66,40,30.16,30.07,29.95,10,8,6,17,4,21,0.00,1,,264
2014-3-11,78,63,47,61,53,45,93,66,39,29.93,29.82,29.71,10,8,2,21,5,26,0.11,5,Rain,210
2014-3-12,64,51,38,60,48,25,97,73,49,30.12,29.79,29.63,10,9,6,29,14,40,0.01,7,,276
2014-3-13,57,45,33,30,26,23,70,51,26,30.29,30.22,30.13,10,10,10,16,6,24,0.00,0,,330
2014-3-14,68,53,37,42,29,25,64,44,24,30.30,30.21,30.12,10,10,10,18,6,24,0.00,2,,190
2014-3-15,67,61,55,51,46,34,80,59,37,30.14,30.07,29.97,10,10,8,10,3,14,0.05,8,Rain,204
2014-3-16,70,63,56,61,56,53,93,77,61,29.93,29.72,29.60,10,5,1,15,7,23,1.59,8,Rain,127
2014-3-17,59,50,40,54,41,37,93,85,76,29.87,29.78,29.66,10,8,2,16,7,21,0.02,8,,340
2014-3-18,52,46,40,45,42,38,100,86,71,30.04,29.93,29.82,10,7,2,16,5,21,0.00,7,,127
2014-3-19,61,55,49,52,47,44,93,79,64,30.11,30.08,30.03,10,10,6,17,7,21,0.00,6,,201
2014-3-20,68,54,40,49,34,21,93,56,18,30.20,30.13,30.10,10,9,5,15,4,22,0.00,1,,355
2014-3-21,72,54,35,36,30,23,82,49,16,30.17,30.09,30.02,10,10,10,15,3,41,0.00,5,,176
2014-3-22,78,64,50,52,47,37,72,54,36,30.07,30.03,29.97,10,10,7,13,4,17,0.00,5,,276
2014-3-23,59,51,43,51,42,31,93,67,40,30.24,30.12,29.98,10,8,2,18,10,24,0.40,6,Rain,357
2014-3-24,65,49,32,30,26,22,82,51,19,30.26,30.12,29.99,10,10,10,13,4,17,0.00,4,,360
2014-3-25,52,42,32,27,20,12,64,44,23,30.28,30.13,30.00,10,10,10,26,11,37,0.00,2,,326
2014-3-26,56,41,25,21,15,9,75,45,15,30.41,30.32,30.25,10,10,10,14,3,18,0.00,0,,51
2014-3-27,70,58,45,55,29,18,87,54,20,30.26,30.17,30.05,10,9,4,20,10,26,0.41,4,Rain,146
2014-3-28,64,61,57,57,55,54,93,83,73,30.09,30.02,29.96,10,8,4,22,8,30,1.07,8,Rain,126
2014-3-29,64,55,46,57,52,39,90,76,62,30.18,29.93,29.75,10,8,1,31,13,38,0.33,7,Rain,316
2014-3-30,67,54,40,37,34,26,76,49,22,30.26,30.19,30.14,10,10,10,17,7,25,0.00,2,,337
2014-3-31,78,58,37,39,31,19,85,48,11,30.22,30.14,30.06,10,10,10,12,2,16,0.00,2,,209